KLM465 EDDS-EDDH

Flight info

Callsign KLM465
Flight time 0h 50m
Altitude 35000
Route OKIBA4B/25 OKIBA N851 RIMKI Z99 LOHRE DCT MASEK DCT ELNAT/N0430F340 P605 NOLGO NOLGO6A
Aircraft A21N/M-SDE2E3FGHIRWXY/LB1

Departure

Time 2026-05-06 18:25
Airport Stuttgart Airport (EDDS)

Arrival

Time 2026-05-06 19:15
Airport Hamburg Helmut Schmidt Airport (EDDH)
Time Latitude Longitude Altitude Speed Heading
2026-05-06 18:02 48.68748 9.19394 1288 ft 0 kts 164°
2026-05-06 18:16 48.68744 9.19396 1288 ft 2 kts 164°
2026-05-06 18:16 48.68740 9.19397 1288 ft 0 kts 164°
2026-05-06 18:17 48.68707 9.19423 1288 ft 9 kts 134°
2026-05-06 18:17 48.68696 9.19513 1288 ft 10 kts 77°
2026-05-06 18:17 48.68716 9.19621 1288 ft 12 kts 74°
2026-05-06 18:17 48.68740 9.19749 1288 ft 14 kts 74°
2026-05-06 18:18 48.68769 9.19892 1288 ft 15 kts 60°
2026-05-06 18:18 48.68835 9.20026 1288 ft 17 kts 64°
2026-05-06 18:18 48.68872 9.20201 1288 ft 18 kts 76°
2026-05-06 18:18 48.68906 9.20395 1288 ft 20 kts 74°
2026-05-06 18:19 48.68933 9.20532 1288 ft 21 kts 73°
2026-05-06 18:19 48.68976 9.20750 1288 ft 22 kts 73°
2026-05-06 18:19 48.69017 9.20970 1288 ft 21 kts 73°
2026-05-06 18:19 48.69056 9.21174 1288 ft 19 kts 74°
2026-05-06 18:20 48.69091 9.21360 1288 ft 17 kts 74°
2026-05-06 18:20 48.69123 9.21526 1288 ft 15 kts 74°
2026-05-06 18:20 48.69150 9.21671 1288 ft 13 kts 74°
2026-05-06 18:20 48.69177 9.21812 1288 ft 18 kts 73°
2026-05-06 18:21 48.69216 9.22012 1288 ft 19 kts 74°
2026-05-06 18:21 48.69252 9.22207 1288 ft 21 kts 74°
2026-05-06 18:21 48.69297 9.22441 1288 ft 24 kts 74°
2026-05-06 18:21 48.69342 9.22681 1288 ft 23 kts 73°
2026-05-06 18:22 48.69384 9.22900 1288 ft 20 kts 73°
2026-05-06 18:22 48.69428 9.23128 1288 ft 26 kts 74°
2026-05-06 18:22 48.69477 9.23382 1288 ft 23 kts 74°
2026-05-06 18:22 48.69517 9.23595 1288 ft 18 kts 74°
2026-05-06 18:23 48.69489 9.23733 1288 ft 12 kts 152°
2026-05-06 18:23 48.69420 9.23739 1288 ft 8 kts 201°
2026-05-06 18:23 48.69353 9.23657 1288 ft 18 kts 225°
2026-05-06 18:23 48.69244 9.23516 1288 ft 18 kts 229°
2026-05-06 18:24 48.69231 9.23476 1288 ft 2 kts 253°
2026-05-06 18:24 48.69169 9.23159 1288 ft 59 kts 253°
2026-05-06 18:24 48.69006 9.22295 1289 ft 112 kts 253°
2026-05-06 18:24 48.68736 9.20881 1290 ft 164 kts 253°
2026-05-06 18:25 48.68402 9.19168 1684 ft 170 kts 253°
2026-05-06 18:25 48.68087 9.17435 2233 ft 173 kts 255°
2026-05-06 18:25 48.67786 9.15696 2891 ft 165 kts 253°
2026-05-06 18:25 48.67444 9.13973 3308 ft 180 kts 252°
2026-05-06 18:26 48.67074 9.12010 3503 ft 210 kts 260°
2026-05-06 18:26 48.67153 9.09719 3945 ft 229 kts 288°
2026-05-06 18:26 48.68074 9.07710 4663 ft 241 kts 315°
2026-05-06 18:26 48.69501 9.06376 5413 ft 250 kts 333°
2026-05-06 18:27 48.71185 9.05446 5996 ft 265 kts 339°
2026-05-06 18:27 48.72973 9.04586 6626 ft 273 kts 340°
2026-05-06 18:27 48.74851 9.03999 7329 ft 281 kts 355°
2026-05-06 18:27 48.76788 9.04473 8063 ft 288 kts 22°
2026-05-06 18:28 48.78425 9.06247 8824 ft 293 kts 48°
2026-05-06 18:28 48.79682 9.08698 9613 ft 296 kts 54°
2026-05-06 18:28 48.80867 9.11301 10181 ft 307 kts 56°
2026-05-06 18:28 48.82117 9.14070 10472 ft 327 kts 55°
2026-05-06 18:29 48.83453 9.17000 10728 ft 347 kts 55°
2026-05-06 18:29 48.84867 9.20078 11148 ft 360 kts 55°
2026-05-06 18:29 48.86318 9.23223 11778 ft 367 kts 55°
2026-05-06 18:29 48.87801 9.26433 12392 ft 374 kts 55°
2026-05-06 18:30 48.89377 9.29536 13059 ft 379 kts 47°
2026-05-06 18:30 48.91440 9.32058 13695 ft 385 kts 28°
2026-05-06 18:30 48.93953 9.33453 14336 ft 386 kts
2026-05-06 18:30 48.96635 9.33679 15054 ft 386 kts 358°
2026-05-06 18:31 48.99331 9.33495 15684 ft 390 kts 356°
2026-05-06 18:31 49.02054 9.33244 16300 ft 393 kts 356°
2026-05-06 18:31 49.04800 9.32994 16885 ft 398 kts 356°
2026-05-06 18:31 49.07576 9.32752 17471 ft 401 kts 356°
2026-05-06 18:32 49.10372 9.32517 18082 ft 405 kts 356°
2026-05-06 18:32 49.13200 9.32284 18559 ft 408 kts 356°
2026-05-06 18:32 49.16054 9.32053 19060 ft 411 kts 356°
2026-05-06 18:32 49.18879 9.31825 19617 ft 412 kts 356°
2026-05-06 18:33 49.21794 9.31590 20134 ft 416 kts 356°
2026-05-06 18:33 49.24660 9.31364 20569 ft 420 kts 356°
2026-05-06 18:33 49.27596 9.31137 21050 ft 423 kts 357°
2026-05-06 18:33 49.30548 9.30910 21561 ft 426 kts 357°
2026-05-06 18:34 49.33523 9.30695 22014 ft 429 kts 359°
2026-05-06 18:34 49.36524 9.30826 22469 ft 432 kts
2026-05-06 18:34 49.39541 9.31137 22908 ft 435 kts
2026-05-06 18:34 49.42570 9.31531 23336 ft 438 kts
2026-05-06 18:35 49.45575 9.31968 23681 ft 441 kts
2026-05-06 18:35 49.48642 9.32436 24039 ft 443 kts
2026-05-06 18:35 49.51720 9.32911 24395 ft 445 kts
2026-05-06 18:35 49.54814 9.33385 24746 ft 447 kts
2026-05-06 18:36 49.57924 9.33857 25105 ft 449 kts
2026-05-06 18:36 49.61047 9.34328 25431 ft 451 kts
2026-05-06 18:36 49.64175 9.34796 25771 ft 453 kts
2026-05-06 18:36 49.67328 9.35266 26079 ft 455 kts
2026-05-06 18:37 49.70458 9.35733 26376 ft 458 kts
2026-05-06 18:37 49.73631 9.36263 26688 ft 460 kts
2026-05-06 18:37 49.76780 9.37211 26978 ft 461 kts 13°
2026-05-06 18:37 49.79921 9.38302 27265 ft 463 kts 14°
2026-05-06 18:38 49.83068 9.39468 27549 ft 465 kts 14°
2026-05-06 18:38 49.86215 9.40674 27821 ft 468 kts 14°
2026-05-06 18:38 49.89383 9.41906 28138 ft 468 kts 14°
2026-05-06 18:38 49.92540 9.43139 28534 ft 467 kts 14°
2026-05-06 18:39 49.95694 9.44369 28927 ft 466 kts 14°
2026-05-06 18:39 49.98843 9.45594 29304 ft 466 kts 14°
2026-05-06 18:39 50.01986 9.46777 29657 ft 465 kts 11°
2026-05-06 18:40 50.08392 9.48331 30192 ft 467 kts
2026-05-06 18:40 50.11618 9.49033 30412 ft 468 kts
2026-05-06 18:40 50.14852 9.49710 30637 ft 469 kts
2026-05-06 18:40 50.18050 9.50367 30849 ft 469 kts
2026-05-06 18:41 50.21303 9.50944 31033 ft 470 kts
2026-05-06 18:41 50.24553 9.51539 31200 ft 472 kts
2026-05-06 18:41 50.27816 9.52221 31425 ft 472 kts
2026-05-06 18:41 50.31075 9.52934 31548 ft 475 kts
2026-05-06 18:42 50.34364 9.53656 31623 ft 479 kts
2026-05-06 18:42 50.41020 9.55087 31767 ft 486 kts
2026-05-06 18:43 50.47800 9.56508 31799 ft 496 kts
2026-05-06 18:43 50.54628 9.57932 31796 ft 497 kts
2026-05-06 18:44 50.61477 9.59363 31795 ft 496 kts
2026-05-06 18:44 50.68326 9.60800 31800 ft 496 kts
2026-05-06 18:45 50.75171 9.62240 31797 ft 496 kts
2026-05-06 18:45 50.82022 9.63687 31797 ft 496 kts
2026-05-06 18:46 50.88835 9.65129 31795 ft 496 kts
2026-05-06 18:46 50.95683 9.66586 31803 ft 496 kts
2026-05-06 18:47 51.02526 9.68045 31799 ft 495 kts
2026-05-06 18:47 51.09358 9.69503 31807 ft 495 kts
2026-05-06 18:48 51.16192 9.70966 31810 ft 495 kts
2026-05-06 18:48 51.22980 9.72426 31810 ft 493 kts
2026-05-06 18:49 51.29776 9.73891 31809 ft 493 kts
2026-05-06 18:49 51.36573 9.75360 31821 ft 493 kts
2026-05-06 18:50 51.43372 9.76835 31820 ft 492 kts
2026-05-06 18:50 51.50162 9.78313 31821 ft 492 kts
2026-05-06 18:51 51.56943 9.79792 31820 ft 492 kts
2026-05-06 18:51 51.63730 9.81277 31828 ft 492 kts
2026-05-06 18:52 51.70509 9.82765 31812 ft 491 kts
2026-05-06 18:52 51.77247 9.84248 31815 ft 491 kts
2026-05-06 18:53 51.84014 9.85743 31819 ft 491 kts
2026-05-06 18:53 51.90792 9.87244 31818 ft 489 kts
2026-05-06 18:54 51.97482 9.88730 31821 ft 487 kts
2026-05-06 18:54 52.04192 9.90226 31821 ft 486 kts
2026-05-06 18:55 52.10908 9.91726 31825 ft 486 kts
2026-05-06 18:55 52.17607 9.93228 31830 ft 485 kts
2026-05-06 18:56 52.24277 9.94729 31594 ft 478 kts
2026-05-06 18:56 52.27508 9.95458 31223 ft 472 kts
2026-05-06 18:56 52.30748 9.96191 30846 ft 468 kts
2026-05-06 18:56 52.33962 9.96917 30472 ft 464 kts
2026-05-06 18:57 52.37148 9.97638 30118 ft 460 kts
2026-05-06 18:57 52.40304 9.98354 29714 ft 457 kts
2026-05-06 18:57 52.43502 9.99077 29269 ft 471 kts
2026-05-06 18:57 52.46785 9.99819 28833 ft 479 kts
2026-05-06 18:58 52.50084 10.00569 28401 ft 479 kts
2026-05-06 18:58 52.53388 10.01331 27857 ft 477 kts
2026-05-06 18:58 52.56620 10.02457 27321 ft 473 kts 12°
2026-05-06 18:58 52.59809 10.03761 26810 ft 470 kts 13°
2026-05-06 18:59 52.62960 10.05121 26290 ft 472 kts 13°
2026-05-06 18:59 52.66213 10.06264 25766 ft 482 kts
2026-05-06 18:59 52.69513 10.06917 25274 ft 485 kts
2026-05-06 18:59 52.72865 10.07388 24783 ft 481 kts
2026-05-06 19:00 52.76196 10.07743 24316 ft 476 kts
2026-05-06 19:00 52.79484 10.08041 23844 ft 472 kts
2026-05-06 19:00 52.82757 10.08322 23368 ft 469 kts
2026-05-06 19:00 52.84914 10.08506 22991 ft 467 kts
2026-05-06 19:01 52.89234 10.08890 22274 ft 463 kts
2026-05-06 19:01 52.92441 10.09189 21740 ft 459 kts
2026-05-06 19:01 52.95620 10.09492 21217 ft 456 kts
2026-05-06 19:01 52.98777 10.09799 20702 ft 453 kts
2026-05-06 19:02 53.01915 10.10106 20197 ft 450 kts
2026-05-06 19:02 53.05036 10.10413 19699 ft 447 kts
2026-05-06 19:02 53.08138 10.10719 19216 ft 445 kts
2026-05-06 19:02 53.11184 10.11019 18739 ft 442 kts
2026-05-06 19:03 53.14243 10.11320 18272 ft 439 kts
2026-05-06 19:03 53.17291 10.11619 17746 ft 437 kts
2026-05-06 19:03 53.20316 10.11917 17212 ft 434 kts
2026-05-06 19:03 53.23316 10.12212 16686 ft 430 kts
2026-05-06 19:04 53.26297 10.12507 16174 ft 426 kts
2026-05-06 19:04 53.29245 10.12798 15586 ft 423 kts
2026-05-06 19:04 53.32161 10.13087 14977 ft 416 kts
2026-05-06 19:04 53.35002 10.13370 14660 ft 401 kts
2026-05-06 19:05 53.36829 10.13518 14498 ft 390 kts 359°
2026-05-06 19:05 53.39434 10.12838 14235 ft 373 kts 339°
2026-05-06 19:05 53.42221 10.09759 13527 ft 355 kts 313°
2026-05-06 19:05 53.43825 10.06735 12967 ft 340 kts 310°
2026-05-06 19:06 53.44825 10.04751 12616 ft 330 kts 310°
2026-05-06 19:06 53.46288 10.01874 12105 ft 317 kts 311°
2026-05-06 19:06 53.47658 9.99057 11595 ft 307 kts 304°
2026-05-06 19:06 53.48503 9.95826 11025 ft 301 kts 280°
2026-05-06 19:07 53.48447 9.92366 10519 ft 299 kts 254°
2026-05-06 19:07 53.47535 9.89284 10042 ft 298 kts 234°
2026-05-06 19:07 53.46234 9.86541 9526 ft 299 kts 230°
2026-05-06 19:07 53.44879 9.83884 8989 ft 299 kts 229°
2026-05-06 19:08 53.43524 9.81235 8443 ft 299 kts 230°
2026-05-06 19:08 53.42173 9.78570 7926 ft 300 kts 230°
2026-05-06 19:08 53.40842 9.75881 7413 ft 300 kts 234°
2026-05-06 19:08 53.39987 9.72730 6865 ft 298 kts 261°
2026-05-06 19:09 53.40008 9.69303 6326 ft 294 kts 287°
2026-05-06 19:09 53.40860 9.66336 5743 ft 282 kts 313°
2026-05-06 19:09 53.42357 9.64357 5108 ft 271 kts 340°
2026-05-06 19:09 53.44154 9.63779 4494 ft 260 kts
2026-05-06 19:10 53.45851 9.64612 3857 ft 253 kts 28°
2026-05-06 19:10 53.47372 9.66063 3283 ft 250 kts 33°
2026-05-06 19:10 53.48768 9.67772 2952 ft 248 kts 48°
2026-05-06 19:10 53.49728 9.70143 2978 ft 245 kts 66°
2026-05-06 19:11 53.50389 9.72778 3021 ft 245 kts 63°
2026-05-06 19:11 53.51311 9.75164 3023 ft 237 kts 52°
2026-05-06 19:11 53.52333 9.77190 3018 ft 215 kts 50°
2026-05-06 19:11 53.53239 9.78980 3016 ft 188 kts 51°
2026-05-06 19:12 53.54029 9.80591 2835 ft 171 kts 52°
2026-05-06 19:12 53.54770 9.82094 2472 ft 164 kts 51°
2026-05-06 19:12 53.55480 9.83526 2133 ft 152 kts 51°
2026-05-06 19:12 53.56122 9.84822 1926 ft 140 kts 51°
2026-05-06 19:13 53.56721 9.86033 1743 ft 129 kts 51°
2026-05-06 19:13 53.57299 9.87205 1570 ft 134 kts 51°
2026-05-06 19:13 53.57924 9.88470 1373 ft 147 kts 51°
2026-05-06 19:13 53.58594 9.89845 1186 ft 155 kts 51°
2026-05-06 19:14 53.59275 9.91227 986 ft 152 kts 50°
2026-05-06 19:14 53.59944 9.92559 768 ft 143 kts 51°
2026-05-06 19:14 53.60557 9.93836 590 ft 139 kts 49°
2026-05-06 19:14 53.61202 9.95106 377 ft 145 kts 50°
2026-05-06 19:15 53.61858 9.96440 101 ft 146 kts 51°
2026-05-06 19:15 53.62469 9.97671 48 ft 127 kts 50°
2026-05-06 19:15 53.62964 9.98679 52 ft 93 kts 50°
2026-05-06 19:15 53.63263 9.99288 53 ft 40 kts 59°
2026-05-06 19:16 53.63287 9.99564 53 ft 15 kts 99°
2026-05-06 19:16 53.63283 9.99600 51 ft 0 kts 100°
2026-05-06 19:17 53.63283 9.99602 51 ft 1 kts 100°
2026-05-06 19:17 53.63276 9.99671 53 ft 9 kts 100°
2026-05-06 19:18 53.63290 9.99782 51 ft 12 kts 59°
2026-05-06 19:18 53.63352 9.99918 51 ft 16 kts 50°
2026-05-06 19:18 53.63420 10.00055 51 ft 14 kts 57°
2026-05-06 19:18 53.63401 10.00194 50 ft 13 kts 129°
2026-05-06 19:19 53.63373 10.00285 48 ft 7 kts 90°
2026-05-06 19:19 53.63374 10.00321 51 ft 0 kts 86°